[[{"header":{"parameterUnit":"m.s-1","parameterCategory":1,"la1":30.2991,"la2":30.254,"lo1":-89.0895,"lo2":-89.0444,"dy":0.0017,"dx":0.0017,"nx":28,"ny":28,"refTime":"2024-05-22T21:00:00:Z","depth":0,"parameterNumber":2,"parameterNumberName":"U-component_of_WINDS"},"data":[0,0,0,0,0,0,0,0,0,0,0,0,0,0,0,0,0,0,0,0,0,0,0,0,0,0,0,0,0,0,0,0,0,0,0,0,0,0,0,0,0,0,0,0,0,0,0,0,0,0,0,0,0,0,0,0,0,0,-2.5549,-2.5549,0,-2.559,-2.5591,-2.5591,-2.5571,-2.557,-2.5569,-2.5568,-2.561,-2.5612,-2.5614,0,0,0,0,0,0,0,0,0,0,0,0,0,-2.5451,-2.5453,-2.5549,-2.5549,-2.555,-2.559,-2.5591,-2.5591,-2.5571,-2.557,-2.5568,-2.5567,-2.5609,-2.5612,-2.5614,0,0,0,0,0,0,0,0,0,0,0,0,0,-2.5493,-2.5454,-2.5548,-2.5544,-2.5544,-2.559,-2.5591,-2.5591,-2.5571,-2.557,-2.5568,-2.5566,-2.5608,-2.5611,-2.5615,-2.5666,0,0,-2.5624,-2.5626,0,0,0,0,0,0,0,0,-2.5491,-2.5497,-2.5544,-2.5545,-2.5545,-2.5574,-2.5572,-2.5617,-2.5572,-2.5561,-2.5568,-2.5566,-2.5599,-2.5603,-2.5614,-2.5668,-2.567,-2.5625,-2.5627,-2.5628,-2.5629,0,0,0,0,0,0,0,-2.5488,-2.5495,-2.5565,-2.5545,-2.5545,-2.554,-2.5545,-2.558,-2.5589,-2.5562,-2.556,-2.5566,-2.5599,-2.5611,-2.5615,-2.5671,-2.5624,-2.5627,-2.5629,-2.5631,-2.5769,-2.577,0,0,0,0,0,0,-2.5485,-2.5493,-2.5564,-2.5566,-2.5513,-2.5543,-2.5548,-2.5566,-2.5588,-2.559,-2.5567,-2.5565,-2.5607,-2.5611,-2.5616,-2.5678,-2.5628,-2.5631,-2.5633,-2.5767,-2.5769,-2.5771,0,0,0,0,0,0,-2.5483,-2.5492,-2.5562,-2.5529,-2.5538,-2.5547,-2.5567,-2.5568,-2.558,-2.5592,-2.5593,-2.5578,-2.5605,-2.5612,-2.5654,-2.5679,-2.5632,-2.5635,-2.5765,-2.5768,-2.577,-2.5801,0,0,0,0,0,0,-2.5481,-2.5491,-2.5511,-2.553,-2.554,-2.5599,-2.5569,-2.557,-2.5586,-2.5583,-2.5603,-2.5605,-2.5605,-2.5649,-2.5657,-2.5683,-2.5638,-2.5763,-2.5766,-2.5769,-2.5798,-2.5805,-2.581,0,0,0,0,0,-2.5477,-2.5519,-2.5512,-2.5521,-2.5565,-2.5601,-2.5606,-2.5606,-2.5588,-2.5608,-2.5615,-2.5604,-2.5675,-2.5654,-2.5662,-2.5689,-2.5761,-2.5765,-2.5769,-2.5795,-2.5803,-2.581,0,0,0,0,0,0,-2.5503,-2.5521,-2.5514,-2.5563,-2.558,-2.5597,-2.5622,-2.5614,-2.5637,-2.5634,-2.5632,-2.5637,-2.568,-2.5689,-2.5665,-2.574,-2.5715,-2.5721,-2.5732,-2.574,-2.5746,-2.5743,-2.564,0,0,0,0,0,-2.5514,-2.5542,-2.5556,-2.5598,-2.5607,-2.5613,-2.5629,-2.5627,-2.5645,-2.5652,-2.5663,-2.5681,-2.5707,-2.5724,-2.5749,-2.58,-2.5803,-2.5822,-2.5828,-2.5833,-2.5838,-2.5865,-2.5873,-2.5784,-2.5784,-2.5784,0,0,-2.5538,-2.5551,-2.5569,-2.5603,-2.5616,-2.5645,-2.5619,-2.5651,-2.5672,-2.5657,-2.5697,-2.5705,-2.5725,-2.5771,-2.5792,-2.578,-2.5864,-2.5839,-2.5842,-2.5844,-2.587,-2.5878,-2.5885,-2.5787,-2.5786,-2.5786,0,0,-2.5595,-2.5608,-2.5644,-2.5658,-2.5678,-2.5682,-2.569,-2.5708,-2.5713,-2.5754,-2.5743,-2.5768,-2.5813,-2.5828,-2.5841,-2.5903,-2.5893,-2.5912,-2.5943,-2.5969,-2.5976,-2.5982,-2.6004,-2.6011,-2.5917,-2.5917,-2.5917,0,-2.5622,-2.5664,-2.5663,-2.5695,-2.571,-2.5698,-2.5734,-2.5747,-2.5775,-2.5785,-2.5772,-2.5828,-2.5841,-2.589,-2.5905,-2.5916,-2.5925,-2.5909,-2.5975,-2.5981,-2.5987,-2.6007,-2.6016,-2.5919,-2.5918,-2.5918,-2.5918,0,-2.5695,-2.5725,-2.5751,-2.5778,-2.5796,-2.583,-2.5834,-2.5852,-2.5849,-2.5854,-2.5895,-2.5909,-2.5937,-2.5948,-2.5945,-2.5997,-2.5988,-2.5975,-2.595,-2.5998,-2.6017,-2.6024,-2.5921,-2.5921,-2.592,-2.592,0,0,-2.577,-2.5795,-2.5805,-2.5816,-2.5838,-2.586,-2.5894,-2.592,-2.5936,-2.5955,-2.5982,-2.6021,-2.6009,-2.6024,-2.6022,-2.6045,-2.6092,-2.6029,-2.6029,-2.6039,-2.6149,-2.6158,-2.6167,-2.6086,-2.6088,-2.6089,-2.6147,0,-2.5828,-2.5885,-2.5885,-2.5938,-2.5965,-2.5954,-2.5982,-2.5999,-2.6004,-2.6028,-2.6034,-2.6061,-2.6044,-2.6052,-2.6075,-2.6082,-2.6114,-2.6078,-2.6111,-2.6112,-2.6105,-2.6177,-2.6187,-2.6241,-2.6154,-2.6156,-2.6157,0,-2.5903,-2.5925,-2.598,-2.5997,-2.6008,-2.6034,-2.6058,-2.6081,-2.6099,-2.6101,-2.6118,-2.6113,-2.6146,-2.6121,-2.6166,-2.6142,-2.6155,-2.6161,-2.6163,-2.6165,-2.6137,-2.618,-2.6258,-2.6266,-2.6168,-2.6167,-2.6167,0,-2.595,-2.5993,-2.6032,-2.6042,-2.6063,-2.6081,-2.6091,-2.6107,-2.6123,-2.6144,-2.6154,-2.6179,-2.6193,-2.6212,-2.6214,-2.6195,-2.6259,-2.6234,-2.6261,-2.6261,-2.6274,-2.6273,-2.6354,-2.6285,-2.6285,-2.6285,-2.6285,0,-2.6015,-2.6049,-2.6053,-2.6077,-2.6115,-2.6114,-2.6152,-2.616,-2.6174,-2.6199,-2.6191,-2.6215,-2.6216,-2.624,-2.6241,-2.6278,-2.6285,-2.6287,-2.6287,-2.6287,-2.6287,-2.6295,-2.6291,-2.6287,-2.6286,-2.6286,-2.6286,0,-2.6074,-2.6078,-2.6119,-2.6136,-2.614,-2.6168,-2.6181,-2.6204,-2.6209,-2.624,-2.6247,-2.6255,-2.6283,-2.6287,-2.6319,-2.632,-2.6364,-2.6361,-2.6358,-2.6357,-2.6384,-2.6381,-2.6472,-2.6484,-2.6408,-2.6409,-2.6409,0,-2.6114,-2.614,-2.6159,-2.6175,-2.6185,-2.6211,-2.6227,-2.6227,-2.6244,-2.6266,-2.6286,-2.6313,-2.6334,-2.6379,-2.6387,-2.6412,-2.6408,-2.6439,-2.6412,-2.6411,-2.6408,-2.6406,-2.6408,-2.6444,-2.6444,-2.6445,-2.6446,0,-2.6185,-2.6186,-2.6209,-2.6233,-2.6252,-2.6271,-2.6289,-2.6302,-2.6305,-2.6324,-2.6352,-2.6369,-2.6401,-2.6428,-2.6452,-2.6462,-2.6454,-2.6454,-2.6462,-2.6462,-2.6459,-2.646,-2.6371,-2.6452,-2.6451,-2.6451,-2.645,-2.645,-2.6235,-2.6257,-2.6274,-2.63,-2.6313,-2.633,-2.6351,-2.6359,-2.6382,-2.6409,-2.6408,-2.6438,-2.6455,-2.6487,-2.6498,-2.6522,-2.6512,-2.6523,-2.6525,-2.6528,-2.653,-2.6456,-2.6526,-2.6526,-2.6526,-2.6526,-2.6526,0,-2.6305,-2.6315,-2.6339,-2.6363,-2.6384,-2.6375,-2.6394,-2.6411,-2.6438,-2.6454,-2.6475,-2.6507,-2.6533,-2.6543,-2.6568,-2.6585,-2.6582,-2.6591,-2.659,-2.6592,-2.6538,-2.6529,-2.6593,-2.6593,-2.6593,-2.6593,-2.6593,-2.6593,-2.6343,-2.638,-2.6383,-2.6426,-2.6435,-2.6465,-2.6477,-2.6492,-2.6504,-2.654,-2.6561,-2.6568,-2.6582,-2.6607,-2.663,-2.6633,-2.6642,-2.6652,-2.6653,-2.6603,-2.6596,-2.6589,-2.658,-2.6655,-2.6655,-2.6705,-2.6705,-2.6706]},{"header":{"parameterUnit":"m.s-1","parameterCategory":1,"la1":30.2991,"la2":30.254,"lo1":-89.0895,"lo2":-89.0444,"dy":0.0017,"dx":0.0017,"nx":28,"ny":28,"refTime":"2024-05-22T21:00:00:Z","depth":0,"parameterNumber":3,"parameterNumberName":"V-component_of_WINDS"},"data":[0,0,0,0,0,0,0,0,0,0,0,0,0,0,0,0,0,0,0,0,0,0,0,0,0,0,0,0,0,0,0,0,0,0,0,0,0,0,0,0,0,0,0,0,0,0,0,0,0,0,0,0,0,0,0,0,0,0,3.9025,3.9025,0,3.9049,3.905,3.905,3.899,3.8988,3.8986,3.8984,3.9008,3.901,3.9012,0,0,0,0,0,0,0,0,0,0,0,0,0,3.8923,3.8925,3.9025,3.9025,3.9025,3.9049,3.905,3.905,3.899,3.8988,3.8985,3.8983,3.9007,3.901,3.9013,0,0,0,0,0,0,0,0,0,0,0,0,0,3.8959,3.8926,3.9025,3.8998,3.8996,3.9049,3.905,3.905,3.8991,3.8988,3.8985,3.8982,3.9006,3.9009,3.9013,3.9092,0,0,3.9024,3.9026,0,0,0,0,0,0,0,0,3.8957,3.8963,3.9002,3.9,3.8998,3.9014,3.9022,3.9064,3.8991,3.8993,3.8984,3.8981,3.9012,3.9015,3.9026,3.9093,3.9094,3.9024,3.9026,3.9028,3.9029,0,0,0,0,0,0,0,3.8955,3.8962,3.9034,3.9003,3.9,3.8984,3.8986,3.903,3.9018,3.8992,3.8988,3.8992,3.901,3.9022,3.9026,3.9095,3.9024,3.9027,3.903,3.9031,3.9226,3.9229,0,0,0,0,0,0,3.8956,3.896,3.9034,3.9035,3.897,3.8989,3.8991,3.9011,3.9017,3.9015,3.8994,3.8989,3.9018,3.9022,3.9026,3.9118,3.9028,3.9031,3.9033,3.9223,3.9227,3.923,0,0,0,0,0,0,3.8954,3.8963,3.9033,3.8996,3.9004,3.8993,3.9017,3.9013,3.9025,3.9019,3.9016,3.9009,3.9015,3.9021,3.9076,3.9118,3.9033,3.9036,3.922,3.9224,3.9229,3.9302,0,0,0,0,0,0,3.8951,3.8963,3.8993,3.8998,3.9006,3.9083,3.902,3.9016,3.9032,3.9025,3.9032,3.903,3.9014,3.9071,3.908,3.9121,3.9039,3.9216,3.9222,3.9227,3.9296,3.9309,3.932,0,0,0,0,0,3.8948,3.9013,3.8995,3.9005,3.9045,3.9085,3.909,3.907,3.9036,3.9066,3.9061,3.903,3.9112,3.9077,3.9086,3.9129,3.9213,3.922,3.9227,3.9291,3.9306,3.9319,0,0,0,0,0,0,3.9014,3.9013,3.8993,3.9062,3.9074,3.9075,3.9113,3.9088,3.911,3.9102,3.9076,3.9078,3.9137,3.9139,3.91,3.9205,3.9157,3.9166,3.9202,3.9217,3.9228,3.9226,3.9042,0,0,0,0,0,3.9037,3.9071,3.9068,3.9129,3.9136,3.9124,3.9141,3.9124,3.9136,3.914,3.914,3.9151,3.9179,3.9198,3.9224,3.9296,3.9296,3.9331,3.9342,3.9352,3.936,3.9396,3.9411,3.9253,3.9253,3.9252,0,0,3.9084,3.9088,3.9111,3.9142,3.915,3.9184,3.9128,3.9168,3.9193,3.9146,3.9197,3.9197,3.9208,3.9272,3.9299,3.9275,3.9403,3.9361,3.9369,3.9371,3.9405,3.9419,3.9433,3.9257,3.9256,3.9256,0,0,3.9187,3.9194,3.9244,3.9253,3.9265,3.9256,3.9268,3.9273,3.9271,3.9322,3.9287,3.9316,3.9366,3.9375,3.9386,3.9491,3.9462,3.95,3.9561,3.9597,3.9609,3.962,3.9656,3.9669,3.9508,3.9508,3.9508,0,3.9243,3.9295,3.9273,3.9315,3.9329,3.9289,3.9339,3.9348,3.9368,3.9378,3.935,3.9411,3.9416,3.9479,3.9505,3.9516,3.9528,3.9498,3.961,3.962,3.963,3.9664,3.9677,3.9513,3.9512,3.9512,3.9511,0,3.9363,3.9399,3.9438,3.9458,3.9477,3.9523,3.9507,3.9528,3.9511,3.9504,3.9556,3.956,3.9585,3.9599,3.9583,3.9661,3.9645,3.9614,3.9564,3.965,3.9681,3.9694,3.9519,3.9517,3.9516,3.9515,0,0,3.9507,3.9515,3.9529,3.9537,3.9547,3.9574,3.9617,3.9642,3.966,3.9675,3.9709,3.9752,3.9723,3.9736,3.9719,3.9751,3.9832,3.9716,3.9716,3.9735,3.9916,3.9937,3.9953,3.9813,3.9816,3.9818,3.9914,0,3.9607,3.9682,3.9664,3.9737,3.9769,3.9731,3.9768,3.9778,3.9773,3.9799,3.9793,3.9823,3.9784,3.9791,3.9821,3.9816,3.9867,3.9809,3.9843,3.9845,3.984,3.9969,3.9993,4.0083,3.9926,3.9928,3.993,0,3.9734,3.9753,3.983,3.9833,3.9846,3.988,3.99,3.9926,3.9936,3.993,3.9944,3.992,3.9962,3.9913,3.9969,3.9929,3.9942,3.9942,3.9945,3.9946,3.9891,3.9972,4.0112,4.0125,3.9949,3.9948,3.9946,0,3.9829,3.9875,3.9926,3.9934,3.994,3.9964,3.9968,3.9974,3.999,4.0008,4.0017,4.004,4.0052,4.0069,4.0052,4.0019,4.011,4.006,4.0105,4.0105,4.0124,4.0123,4.0267,4.0136,4.0136,4.0136,4.0136,0,3.9942,3.999,3.9969,4.0,4.0052,4.003,4.0082,4.0081,4.0087,4.0117,4.0086,4.0114,4.0091,4.0117,4.0104,4.0151,4.0157,4.0152,4.0148,4.0154,4.0154,4.0161,4.0154,4.0139,4.0139,4.0138,4.0137,0,4.0057,4.0045,4.0098,4.0098,4.01,4.0138,4.0138,4.0166,4.0159,4.0197,4.0204,4.0193,4.0222,4.0207,4.0237,4.0229,4.0289,4.0277,4.0285,4.0282,4.0326,4.0322,4.0478,4.0496,4.0356,4.0357,4.0359,0,4.0128,4.0164,4.0169,4.0186,4.0192,4.0221,4.0236,4.0216,4.0233,4.0246,4.0273,4.0299,4.0319,4.0366,4.036,4.0383,4.037,4.0423,4.0373,4.0377,4.0368,4.0366,4.0368,4.0432,4.0434,4.0435,4.0437,0,4.0256,4.0248,4.0272,4.0294,4.0313,4.0329,4.0342,4.0358,4.0338,4.0359,4.0388,4.0404,4.0434,4.046,4.0479,4.0481,4.0455,4.0453,4.0464,4.0469,4.0472,4.0469,4.0311,4.0449,4.0448,4.0447,4.0446,4.0445,4.035,4.0379,4.0387,4.0414,4.0422,4.0435,4.0461,4.0457,4.0481,4.0504,4.049,4.0524,4.0531,4.0554,4.056,4.0586,4.0564,4.0581,4.0585,4.0589,4.0594,4.047,4.0589,4.0589,4.0589,4.0588,4.0588,0,4.0475,4.0477,4.0503,4.0522,4.0543,4.0517,4.053,4.0549,4.0579,4.0589,4.0608,4.0641,4.0666,4.0662,4.0684,4.0705,4.0693,4.0711,4.0708,4.0709,4.0613,4.06,4.072,4.072,4.072,4.072,4.072,4.072,4.0542,4.0589,4.0582,4.0633,4.0635,4.0668,4.0677,4.0688,4.0695,4.0733,4.0753,4.0751,4.0754,4.0776,4.0797,4.0795,4.0804,4.0826,4.0819,4.0729,4.0716,4.0703,4.0691,4.0828,4.0829,4.0913,4.0914,4.0915]}]]